Theta_e
303 303 303 303 303 303 303 303 304 304 304 303 302 302 296 294 292 303 308 309 304 297 289 292 290 290 292 295 296 297 296 296 297 295 298 297 300 299 297 297 296 298 297 297 296 297 294 296 295 296 297 298 301 302 303 304 302 301 300 300 302 303 296 292 294 297 300 301 302 302 303 303 300 299 300 299 296 297 296 295 297 292 293 291 290 288 291
303 303 303 303 303 303 303 304 304 304 303 304 303 298 296 297 296 298 306 309 303 293 284 286 288 290 293 293 294 297 297 297 295 295 297 297 297 296 296 297 298 297 299 298 296 298 291 296 297 295 298 297 304 303 303 303 300 300 299 297 303 293 297 294 289 289 292 295 298 298 302 302 299 298 299 300 300 300 300 299 299 291 293 293 290 285 289
303 303 303 303 304 303 304 304 304 304 304 305 303 294 298 295 300 298 299 304 303 291 292 291 288 290 290 290 291 293 295 296 296 296 297 300 299 297 296 298 300 298 299 298 298 298 296 294 299 298 299 300 303 303 302 303 302 302 303 307 304 296 296 294 287 284 282 282 284 287 289 295 299 300 299 300 299 299 297 291 293 288 294 295 290 289 293
303 303 303 304 304 304 304 304 304 304 304 304 302 300 297 293 285 293 295 300 299 298 300 298 294 291 291 288 291 294 293 296 297 297 297 300 300 300 300 300 300 298 297 296 296 296 299 296 295 297 297 301 301 303 303 302 303 305 311 306 304 297 302 299 296 291 289 291 294 299 299 297 294 297 299 299 300 301 300 298 292 289 294 291 294 293 290
303 303 304 304 304 304 304 304 305 304 304 303 303 300 298 301 289 289 287 295 296 293 296 295 296 291 294 288 294 292 293 296 297 300 294 299 300 300 300 299 297 297 297 296 295 296 297 299 298 297 298 301 302 303 303 303 304 308 304 307 302 300 297 302 299 297 298 301 299 301 299 296 297 297 297 299 299 300 298 293 291 297 294 289 296 295 291
303 303 303 304 304 304 305 305 305 304 304 304 303 298 303 292 294 296 298 291 287 289 290 297 297 297 295 293 296 295 294 295 292 299 300 301 303 297 298 299 299 299 297 298 293 295 296 299 295 300 302 301 303 300 302 301 306 305 302 305 302 299 294 301 301 298 299 300 299 301 300 299 298 298 298 298 299 300 296 297 299 301 293 290 296 297 294
303 303 303 303 304 304 305 305 305 304 303 304 304 296 299 300 297 300 301 293 294 293 297 298 294 295 294 293 295 294 293 293 297 297 299 299 300 300 291 297 298 299 300 299 297 297 292 292 299 297 299 300 299 297 299 302 305 303 302 303 305 300 297 302 301 299 298 300 301 301 300 301 301 300 298 300 300 298 301 302 301 301 300 300 299 298 295
302 303 303 303 303 304 305 305 305 305 303 305 302 301 297 296 295 295 300 298 297 298 297 295 294 292 295 289 294 294 294 293 297 298 297 293 298 302 297 298 299 300 300 300 296 298 299 299 294 301 301 302 301 300 300 300 303 302 300 302 306 303 296 301 302 299 299 300 300 301 302 302 300 302 303 304 304 304 304 304 303 303 301 301 298 294 291
302 303 303 303 303 304 304 304 305 304 304 304 301 302 304 303 301 300 297 293 295 296 296 294 292 291 294 292 294 294 294 294 297 297 299 298 298 299 297 300 301 300 300 300 300 302 302 302 304 303 304 298 303 301 302 304 299 300 301 304 305 303 297 304 302 294 295 300 300 301 301 300 298 296 300 302 302 300 302 299 304 301 296 295 293 288 285
302 302 303 303 303 303 304 304 304 304 303 305 304 300 306 305 308 304 299 293 294 293 294 294 292 287 294 293 294 292 293 296 297 292 298 299 300 302 301 302 299 300 301 299 303 305 305 305 309 309 308 309 306 306 304 304 301 301 302 305 301 300 299 296 296 292 293 300 302 299 299 296 291 290 295 299 301 302 303 303 304 302 299 293 290 289 291
302 302 303 303 303 303 304 304 304 304 306 305 302 303 305 301 300 303 302 291 291 294 293 292 292 294 296 296 294 296 295 296 297 292 292 299 301 303 302 302 301 301 300 302 307 308 309 308 308 309 308 307 306 307 306 305 305 303 302 302 302 301 300 297 300 291 293 297 299 298 292 284 286 295 300 300 299 300 297 296 299 300 301 298 299 293 293
302 302 303 303 303 303 304 304 304 304 303 308 307 304 306 305 304 303 297 290 290 296 294 292 294 296 296 296 295 293 296 297 297 298 294 300 302 304 303 303 302 294 303 308 308 308 309 308 307 308 307 306 306 305 305 304 305 307 307 301 299 301 298 295 299 292 290 295 297 292 285 284 292 298 300 302 301 300 297 297 298 298 297 296 293 293 292
302 302 303 303 303 303 304 304 304 304 304 307 307 303 307 307 302 301 300 296 290 294 292 295 298 296 296 295 295 296 298 299 299 298 300 301 301 302 304 303 301 301 307 307 308 306 303 301 302 302 302 303 303 305 304 304 303 304 305 305 303 297 295 296 294 294 295 293 291 283 283 291 296 297 300 301 300 299 297 293 295 297 297 296 293 293 293
302 302 303 303 303 304 304 304 304 305 305 306 305 306 306 306 303 302 300 295 292 297 297 296 296 296 297 296 296 298 299 299 300 301 299 301 300 301 303 305 305 308 308 312 308 305 301 301 294 297 296 299 298 296 300 302 304 303 304 304 304 303 301 297 294 296 287 289 288 286 289 290 292 293 295 298 294 297 296 287 290 296 298 296 293 292 292
302 303 303 303 303 304 304 305 305 305 305 305 306 306 307 307 305 303 305 300 292 294 297 291 295 297 297 297 298 297 297 298 298 296 300 302 299 301 302 303 306 305 308 307 302 302 297 294 290 290 291 290 286 287 297 296 302 305 306 305 303 304 296 298 294 290 294 290 286 286 286 284 288 295 300 302 303 303 302 294 288 296 297 297 294 291 291
302 303 303 303 304 304 304 305 305 305 306 305 306 306 308 308 307 305 304 302 297 290 293 298 298 298 297 297 298 297 295 294 297 298 298 299 299 301 302 304 305 306 304 304 302 297 294 291 288 289 287 288 293 292 289 295 296 301 306 305 305 306 304 301 294 291 293 289 288 286 284 286 294 297 300 303 304 305 304 296 287 294 296 296 295 293 292
302 303 303 304 304 304 305 305 305 306 306 306 305 306 306 310 307 306 306 305 301 293 300 302 302 302 300 296 300 298 299 295 297 293 293 296 298 300 301 304 306 305 304 301 300 295 292 291 293 291 289 294 290 288 294 293 292 294 300 301 299 299 297 295 293 291 292 290 288 286 288 286 295 299 300 302 305 304 301 288 287 294 296 297 296 294 294
302 303 303 303 304 304 305 305 306 307 307 307 306 307 309 312 310 311 306 305 299 298 302 304 301 299 297 298 297 300 302 301 300 301 298 300 300 300 301 302 300 304 307 297 297 293 291 290 288 288 288 297 297 296 287 294 291 291 293 294 292 293 294 295 291 292 291 288 288 288 288 295 300 299 301 302 304 301 289 285 292 296 297 297 297 296 296
302 303 303 303 304 304 305 306 306 306 307 306 309 310 311 313 312 311 307 306 306 295 302 306 306 304 305 306 304 303 302 302 301 296 296 295 299 301 302 302 305 296 301 296 297 292 291 291 297 293 290 292 296 289 297 292 291 298 297 291 294 292 293 293 294 291 291 291 288 288 289 295 300 301 302 303 297 287 288 295 300 298 296 298 298 297 297
302 303 303 303 304 305 305 306 306 307 306 307 308 311 312 313 313 311 308 305 306 300 302 303 304 301 305 303 301 301 302 303 302 299 297 293 302 303 300 295 302 303 298 300 292 297 292 290 292 296 291 292 296 300 294 293 299 295 295 297 291 293 289 289 289 291 291 291 288 285 283 291 301 301 300 300 291 292 298 299 300 300 298 297 297 297 297
302 303 303 303 304 305 306 306 306 306 306 307 305 312 311 315 313 314 311 309 305 298 300 306 306 304 305 304 305 303 303 300 301 299 301 301 304 301 290 291 296 298 294 295 291 292 294 291 294 293 299 295 295 297 290 291 294 298 298 297 296 299 290 290 290 292 288 287 285 285 293 298 302 301 291 297 299 302 302 300 297 300 300 298 297 297 298
302 303 303 304 304 305 306 306 306 306 306 306 306 311 312 313 314 313 313 311 307 300 303 307 308 308 308 308 308 308 306 306 306 308 304 300 305 303 301 302 302 303 303 304 299 295 298 298 300 294 292 294 298 291 296 290 288 294 300 300 289 298 296 297 291 294 291 289 290 295 299 300 302 302 301 302 303 304 303 302 300 298 298 300 298 297 298
302 303 303 304 304 305 306 306 307 306 306 305 306 314 310 311 313 314 312 311 313 310 311 309 309 308 308 308 309 310 311 311 312 312 312 304 298 303 304 303 302 305 305 305 301 299 297 298 293 297 294 296 293 293 295 294 291 295 291 298 297 300 302 302 297 290 295 296 297 298 298 299 300 302 303 302 302 304 304 302 299 300 300 300 299 299 298
302 302 303 303 304 305 305 306 306 306 306 306 306 313 313 312 313 313 311 310 306 299 303 307 304 298 301 302 306 309 310 310 311 314 316 312 301 298 303 305 306 305 304 306 310 304 301 300 300 300 293 299 299 293 290 290 291 297 294 293 298 300 302 301 294 296 294 286 296 295 296 298 299 300 302 303 303 302 302 301 300 300 301 300 300 299 299
302 302 303 303 304 304 305 306 306 306 306 306 308 312 312 315 315 311 310 299 299 299 293 297 300 305 307 309 309 308 309 311 313 314 315 317 312 305 303 307 313 308 304 307 308 304 299 294 297 297 291 300 302 291 299 294 293 300 292 295 296 295 304 298 297 297 292 290 294 296 299 299 300 300 299 300 301 302 302 302 301 301 301 301 300 300 299
302 302 303 303 304 304 305 306 306 305 306 306 307 313 311 308 314 314 311 312 309 304 295 294 300 307 308 307 305 307 310 310 310 311 312 311 311 312 311 311 310 313 311 309 308 301 297 296 295 296 295 294 305 296 295 300 298 301 297 295 300 299 301 292 296 291 292 295 296 297 298 298 299 300 301 301 301 301 301 300 300 300 300 300 300 301 300
302 302 302 303 303 304 305 305 306 305 305 305 310 316 313 315 316 313 310 307 303 295 298 295 301 304 306 304 306 309 309 309 310 309 310 311 311 313 312 310 308 308 307 305 306 300 300 299 297 296 300 297 303 301 300 298 299 293 293 298 301 299 295 297 293 288 288 289 292 296 290 289 294 297 300 301 301 301 301 300 299 300 299 299 299 299 300
302 302 303 303 304 304 305 305 305 305 305 306 310 314 316 315 316 317 315 315 306 297 297 297 299 302 308 303 306 307 308 309 309 308 308 308 310 311 311 310 309 306 305 302 296 297 297 295 296 297 297 302 299 295 302 301 301 297 297 297 300 296 297 296 292 292 291 297 298 300 300 298 297 297 299 301 302 301 300 299 299 299 300 300 299 298 298
302 302 303 303 304 304 305 305 305 304 305 306 316 315 314 314 318 315 314 316 316 308 301 301 305 304 296 300 306 306 308 309 309 308 308 307 308 309 308 308 307 306 306 302 299 299 297 297 297 299 298 304 300 294 297 291 291 289 293 298 299 300 302 301 300 300 300 300 299 301 299 295 297 299 300 300 302 301 300 300 300 300 300 301 300 299 298
302 302 303 303 304 304 304 304 304 304 305 314 315 311 305 306 313 313 313 314 316 313 298 294 292 294 306 305 303 305 306 307 308 308 307 306 306 307 306 307 306 307 305 300 298 295 297 297 297 303 304 307 299 295 292 293 291 291 296 297 300 301 302 303 303 300 297 301 301 300 299 298 300 300 301 301 302 301 299 299 300 300 300 301 300 299 300
302 303 303 303 303 304 304 305 305 304 305 314 310 300 296 295 306 312 308 313 317 314 299 299 295 299 298 304 305 302 304 304 306 306 306 306 306 306 307 307 306 305 298 299 298 297 297 295 295 297 302 302 298 295 293 292 289 291 295 298 299 299 300 301 303 302 300 300 300 301 300 299 300 299 299 300 300 301 300 300 301 300 300 300 299 300 300
302 302 303 303 303 304 304 305 305 305 313 307 304 303 303 304 308 307 310 311 317 310 298 294 293 294 294 298 303 305 304 305 304 305 305 307 304 306 305 305 300 305 299 297 298 297 296 297 295 300 299 301 298 295 295 293 289 290 296 297 299 300 301 300 300 300 301 301 299 297 297 298 300 297 296 300 300 301 301 300 300 301 300 301 301 301 300
302 303 303 303 303 304 304 304 304 305 312 309 304 303 304 301 304 307 309 316 316 306 307 297 292 293 293 297 303 304 304 306 303 303 300 306 303 305 301 306 304 303 304 299 295 293 299 295 295 295 300 305 295 294 295 291 292 296 297 298 298 299 299 300 300 300 300 301 301 296 295 296 298 300 300 300 300 300 301 300 300 300 299 298 298 298 299
302 303 302 303 303 304 304 305 304 303 303 309 309 310 316 305 308 305 312 316 310 307 301 295 290 291 292 301 298 301 304 300 299 301 294 303 305 304 298 301 302 296 300 298 297 297 298 295 295 294 299 294 295 292 288 292 296 297 298 298 299 298 298 298 299 298 300 300 301 301 300 300 300 300 300 299 300 301 301 301 300 299 298 298 298 298 298
302 302 303 303 304 305 303 303 313 310 307 306 307 314 313 304 303 306 313 316 302 294 294 294 296 292 290 292 291 297 304 303 297 299 294 298 306 301 301 295 296 294 293 304 296 295 293 295 300 294 291 298 292 288 289 293 295 297 297 297 298 298 298 297 297 299 300 300 300 300 300 300 299 298 298 299 299 299 299 299 300 299 297 297 297 297 298
302 302 303 304 303 304 310 311 309 306 306 305 307 308 304 305 308 316 319 321 310 299 293 292 294 292 292 289 289 292 303 298 300 301 299 297 299 303 300 296 291 295 302 296 292 297 293 298 296 290 293 291 289 292 293 296 295 296 297 297 298 298 298 298 298 299 299 300 300 300 299 299 299 298 299 299 299 299 299 298 298 298 297 297 297 298 298
302 303 304 304 308 306 303 301 307 308 309 308 306 304 303 307 317 315 314 312 313 309 301 294 293 294 298 293 294 295 301 291 299 297 298 294 292 296 297 293 291 293 293 292 293 291 295 302 295 290 291 289 291 298 299 299 298 297 298 299 300 300 300 300 300 299 298 298 298 298 299 298 298 298 298 298 298 299 298 297 297 296 295 296 297 297 298
303 303 309 304 302 296 296 298 307 312 304 304 304 307 308 305 298 298 299 297 302 303 298 300 294 299 300 297 290 300 301 294 301 292 292 296 293 291 295 293 292 293 287 289 292 300 295 293 292 290 290 297 298 299 299 300 300 301 300 300 300 300 300 300 300 299 297 296 296 297 297 297 297 297 297 297 298 296 296 297 298 298 298 298 298 299 298
304 309 304 304 301 295 296 306 312 304 308 308 309 300 296 298 296 292 292 296 295 293 298 298 294 297 297 296 296 302 301 293 293 296 290 296 292 288 293 288 290 292 288 288 290 300 288 289 290 290 289 294 295 297 300 301 301 301 301 301 301 301 301 300 301 299 298 297 297 298 298 296 296 296 297 297 297 298 298 298 298 299 299 299 299 299 299
307 302 298 298 297 302 307 310 306 307 307 299 300 297 292 295 292 289 296 291 291 294 295 292 299 298 302 297 294 294 303 299 292 291 291 292 299 291 292 292 292 290 285 286 288 299 289 285 288 289 288 294 295 298 299 299 299 300 301 301 301 301 301 301 300 301 300 300 300 300 300 299 299 298 297 297 297 297 297 298 299 299 299 299 300 300 299
302 304 302 298 304 305 308 308 310 307 300 295 294 293 292 289 293 294 291 289 289 291 298 299 299 297 299 300 299 293 299 304 302 301 296 290 297 298 290 287 293 288 286 286 290 293 290 288 288 288 288 295 296 298 299 299 299 299 300 301 301 301 301 301 300 300 300 299 299 300 300 300 299 299 299 299 298 298 298 299 299 299 299 299 299 300 301
298 298 301 303 305 306 307 305 302 296 295 296 290 287 290 291 293 292 292 288 289 292 295 298 292 296 295 299 299 299 296 303 301 294 293 288 292 292 288 290 291 287 284 290 293 292 289 285 286 288 292 296 298 299 299 298 299 299 300 301 300 301 300 300 300 300 301 300 300 300 300 300 299 299 299 299 299 299 299 299 299 299 300 301 300 301 301
301 301 302 302 303 301 300 293 295 294 287 287 287 285 289 286 288 288 289 293 299 295 295 304 302 303 303 304 300 302 297 302 296 294 292 289 293 293 289 288 287 285 288 294 291 287 285 285 286 291 296 296 298 298 299 299 300 300 300 301 301 301 301 300 300 300 300 300 300 300 299 300 300 300 300 300 300 300 300 300 299 300 301 300 300 301 301
306 305 301 298 294 294 295 284 294 290 287 289 286 282 285 285 288 290 288 291 294 293 299 295 297 297 291 296 297 293 294 297 296 295 292 293 291 288 287 285 287 291 296 289 288 284 286 287 290 295 296 297 297 298 298 299 299 299 299 300 301 301 300 300 300 299 299 300 300 300 300 300 300 301 301 301 300 299 299 299 300 301 301 301 300 300 301
299 296 294 291 289 292 289 282 293 288 283 286 288 287 288 285 288 290 290 295 297 295 298 298 298 297 294 299 299 297 295 292 295 292 287 291 288 289 287 286 290 291 288 285 287 288 287 286 295 296 296 296 297 298 298 299 299 299 299 299 300 300 300 299 299 299 299 299 299 299 299 299 299 299 300 300 300 300 300 300 300 300 301 300 300 300 301
295 293 290 286 281 287 287 284 287 284 288 290 289 291 292 294 294 294 299 300 298 299 296 298 298 298 294 297 293 292 294 294 291 291 292 292 287 285 290 294 292 287 286 287 284 284 286 290 294 296 297 297 297 298 298 299 299 300 299 298 299 299 300 300 299 299 299 299 299 299 299 300 299 299 299 300 300 300 301 301 301 301 301 300 300 300 301
295 294 293 290 285 288 290 285 286 289 291 293 295 295 295 296 298 299 299 300 300 300 300 300 300 299 295 293 294 294 295 295 289 291 293 287 286 288 292 288 283 285 282 282 284 285 288 293 296 299 298 298 298 298 298 298 299 299 298 299 299 299 299 299 299 299 300 301 300 300 299 299 299 300 300 300 300 301 301 302 302 302 301 300 300 301 301
291 294 292 284 283 287 285 288 293 295 296 297 296 297 298 299 298 297 299 301 302 302 299 298 296 297 295 298 297 292 292 293 289 290 292 289 290 287 285 284 284 286 287 285 286 290 294 297 298 299 299 299 299 298 298 298 298 299 299 299 299 299 299 298 298 299 299 299 299 300 300 300 300 300 299 300 300 301 301 302 301 301 301 301 300 301 300
296 292 288 287 289 289 289 292 292 291 294 295 296 296 296 296 295 297 300 302 300 299 301 298 295 294 291 294 292 291 289 292 286 286 290 288 285 281 282 280 283 282 287 289 291 293 296 298 299 300 300 299 299 299 298 299 298 298 299 298 298 298 299 299 300 300 300 300 300 299 300 300 300 300 300 300 299 300 301 302 302 301 301 301 300 300 300
292 291 292 290 289 290 293 294 293 290 293 294 295 294 295 295 295 298 302 299 301 300 299 299 297 293 292 291 288 289 289 292 289 289 287 285 285 286 285 282 284 285 288 292 293 297 298 300 301 300 300 299 299 299 299 299 297 298 299 300 300 299 299 299 299 300 300 300 300 300 301 300 300 300 300 300 300 301 301 301 301 301 301 301 301 300 299
295 293 292 295 289 288 290 286 287 287 290 292 293 294 295 295 296 298 301 301 301 298 295 292 293 291 290 288 287 284 287 293 289 287 287 286 289 287 285 284 287 290 295 296 297 299 299 300 300 300 300 299 299 300 300 299 299 299 300 300 300 301 301 301 300 300 300 300 301 295 300 300 301 301 301 301 301 301 301 300 300 301 301 301 301 301 300
291 288 289 293 295 295 294 294 293 293 293 295 295 296 297 296 298 300 302 300 298 294 292 294 292 290 287 285 287 291 292 290 287 288 286 289 291 287 287 289 292 295 296 297 297 299 299 300 301 300 301 300 299 301 301 301 300 300 300 300 300 300 300 300 301 301 301 301 301 301 301 301 302 302 301 301 300 300 299 299 300 301 301 301 301 301 301
Wind_Speed
11 11 10 10 9 6 6 7 7 6 5 6 4 6 3 3 1 6 9 9 13 10 8 9 9 10 8 8 8 7 8 9 3 4 2 5 6 6 8 8 9 9 10 17 17 19 12 17 14 14 16 15 12 13 20 18 19 18 13 16 10 7 4 11 10 9 11 14 13 15 7 12 17 17 15 13 13 14 11 10 8 8 8 10 6 5 3
12 10 9 8 8 8 8 7 5 4 4 5 4 5 3 1 4 5 7 11 10 8 8 10 9 9 8 7 8 8 11 7 5 4 3 4 3 7 6 5 8 9 14 13 17 20 10 17 16 12 13 12 16 20 21 21 16 17 12 13 13 8 8 10 9 9 10 6 8 10 12 12 11 12 14 15 15 16 13 12 4 7 12 11 7 7 4
13 13 12 11 11 9 8 7 6 6 3 7 4 3 2 3 5 7 8 7 6 7 6 6 5 9 8 6 9 13 10 7 8 4 6 5 6 5 6 10 4 8 12 14 16 18 13 12 17 11 14 9 7 15 18 17 14 15 13 11 10 8 9 8 10 13 14 13 15 14 15 15 10 12 15 16 17 17 13 12 8 4 10 14 7 6 9
14 14 13 13 12 10 9 7 5 5 3 6 5 4 2 6 5 6 6 7 6 9 10 8 8 8 8 9 12 14 8 6 3 4 8 9 8 9 8 7 7 9 11 12 16 19 15 11 12 12 10 10 11 12 20 18 16 15 9 14 11 7 7 9 6 9 9 10 10 11 12 11 13 17 17 15 14 13 14 8 6 7 4 4 5 18 16
16 15 14 13 12 10 8 6 5 4 3 5 4 4 5 4 4 6 7 7 9 8 8 8 10 6 7 6 4 7 8 3 4 6 7 9 10 8 10 9 9 9 10 11 13 16 13 11 12 13 13 10 11 14 14 16 7 15 10 12 9 8 8 5 2 1 5 5 6 11 15 14 16 15 10 11 12 10 11 7 8 5 7 4 4 20 20
15 14 14 13 14 13 10 7 5 4 6 4 5 5 6 3 5 6 5 5 5 8 8 9 6 2 4 4 3 6 4 5 4 3 10 9 3 6 5 12 11 10 12 11 8 13 13 11 9 15 11 11 14 14 16 16 7 11 12 13 9 10 4 5 7 6 3 3 4 7 12 12 13 14 14 12 11 10 12 13 7 3 4 4 12 14 17
15 15 14 13 13 13 11 9 7 6 5 3 5 4 0 3 3 2 3 4 4 3 3 2 1 3 2 3 3 5 5 6 5 5 5 7 7 9 5 9 12 13 12 10 7 13 12 9 7 6 11 13 14 11 15 15 11 12 13 12 8 6 5 6 7 8 11 9 6 9 9 7 5 6 9 8 12 12 9 7 7 3 6 17 16 15 17
15 15 15 14 14 13 12 12 10 8 8 5 6 5 4 3 4 2 5 3 1 4 1 1 3 5 1 2 3 5 5 6 6 7 8 7 8 7 9 10 11 14 12 6 3 4 4 10 9 5 7 9 11 11 13 12 14 14 13 11 7 8 3 8 10 9 9 10 9 8 12 13 13 11 10 9 10 11 11 14 16 20 16 17 20 21 16
16 15 15 14 14 13 13 13 12 12 9 5 6 0 2 2 4 3 2 3 3 2 3 1 1 1 0 2 3 5 7 8 7 8 8 9 8 7 9 9 8 13 11 11 5 7 8 11 3 9 10 8 12 9 11 12 14 17 12 9 4 6 5 8 8 6 6 9 12 13 14 17 16 11 10 8 7 9 7 7 6 14 19 19 19 15 10
16 16 16 15 15 14 13 13 12 15 15 6 6 2 1 3 3 3 5 1 3 1 2 2 2 1 4 5 4 4 7 9 8 6 7 10 11 10 9 7 9 7 9 9 6 3 12 5 7 13 11 4 7 8 7 12 13 12 10 9 8 7 8 6 6 6 6 9 11 14 15 12 7 5 6 6 9 11 13 14 14 14 18 15 8 7 12
17 16 17 17 16 15 14 13 12 11 11 4 4 2 4 4 4 3 3 2 1 2 2 3 5 4 4 7 10 10 13 13 10 9 2 7 7 8 7 8 6 7 7 7 4 6 10 10 9 7 7 8 7 7 6 15 12 9 10 9 10 15 10 5 6 5 7 8 9 11 7 9 4 4 3 5 4 10 14 13 13 10 5 6 11 16 17
17 18 17 17 16 16 15 14 12 10 9 6 3 4 2 3 6 4 2 1 2 4 4 5 6 6 8 5 7 10 5 4 8 5 4 1 1 1 2 0 4 5 2 2 11 6 6 10 14 12 10 12 12 10 5 6 2 9 10 10 11 11 12 6 6 6 8 10 9 5 6 3 2 2 2 5 10 13 15 13 10 13 17 21 21 19 17
19 18 18 18 18 17 16 14 12 10 7 6 5 5 3 3 5 3 1 2 1 5 4 3 3 7 7 6 6 2 7 9 8 7 5 2 5 3 6 7 6 8 2 4 16 10 9 8 10 12 10 9 11 12 10 6 5 8 10 10 7 6 8 8 8 4 6 6 5 8 3 4 4 3 6 10 13 14 16 16 13 9 12 18 19 18 17
18 19 18 19 18 18 17 15 13 11 8 7 6 5 3 3 5 4 2 1 3 3 2 5 4 3 3 3 1 10 11 12 12 11 5 1 6 10 11 9 9 5 1 2 13 8 8 6 5 6 6 6 6 5 5 7 7 4 6 8 5 8 6 4 4 9 8 6 3 3 7 8 6 8 8 10 9 10 4 7 6 8 9 14 19 19 18
19 19 19 19 19 19 17 16 14 12 8 8 7 6 5 3 3 3 2 3 1 1 3 2 3 6 6 5 6 7 7 9 10 8 10 9 7 6 9 8 4 2 1 1 6 4 4 3 4 5 4 3 4 2 5 1 2 4 3 5 8 1 4 4 4 3 5 6 6 5 5 4 7 7 8 2 4 8 12 12 6 6 11 14 18 20 19
20 20 20 19 19 19 18 17 15 12 9 8 6 5 5 3 3 4 4 5 4 2 2 1 6 8 7 4 5 8 6 4 6 9 9 9 9 7 5 3 1 2 1 5 3 3 3 3 4 3 3 4 3 6 3 2 2 4 3 4 5 7 6 4 5 3 5 7 5 4 5 4 4 10 10 7 4 5 7 6 6 7 12 14 16 18 18
20 21 20 21 20 21 20 18 14 11 7 5 5 4 4 4 6 5 5 4 5 2 4 6 5 8 8 2 5 6 5 4 5 6 5 8 10 9 7 4 1 1 1 4 3 3 3 4 4 2 2 9 7 5 8 6 6 5 7 4 2 1 2 1 4 5 4 3 5 5 3 2 6 9 8 8 5 6 5 7 6 13 14 14 16 17 17
21 21 21 21 21 21 20 18 15 10 7 6 7 3 2 4 6 6 5 5 4 5 6 8 9 6 6 5 6 5 3 5 5 5 6 7 9 8 9 8 7 5 7 6 6 3 5 4 7 6 6 6 6 10 5 7 7 5 8 8 7 7 7 8 7 6 6 8 4 7 4 5 8 8 8 6 4 5 6 4 8 17 16 15 15 16 15
21 22 21 21 21 20 19 17 14 10 3 10 9 6 2 2 3 4 5 6 6 3 8 10 8 8 8 5 5 6 5 4 4 3 3 3 4 5 2 5 4 5 5 4 6 5 7 7 6 7 5 6 8 5 7 5 4 4 6 4 5 3 1 1 3 5 5 6 3 4 6 3 7 6 6 6 5 4 3 8 14 19 18 16 15 16 15
21 21 21 21 20 19 18 16 14 10 4 8 8 5 5 1 3 4 5 5 6 7 7 10 11 13 10 12 10 9 9 6 11 3 2 3 3 4 3 5 6 3 3 4 3 2 4 5 3 3 6 8 4 5 4 4 4 3 3 2 1 1 2 4 3 1 2 4 6 4 4 4 7 9 7 3 2 6 10 14 15 15 18 17 15 14 14
21 20 21 21 20 19 17 16 15 12 5 3 7 5 2 3 3 4 5 6 6 2 6 8 9 12 11 12 10 11 10 10 10 9 7 4 4 2 3 2 4 4 3 3 3 5 2 3 5 2 3 4 5 6 5 5 5 3 5 2 5 7 3 2 4 5 3 6 3 3 5 11 10 8 3 3 6 10 13 14 15 14 15 16 15 13 12
20 20 20 20 20 19 17 16 16 14 8 4 7 7 3 4 2 3 3 5 5 4 3 5 5 7 8 10 8 8 9 9 9 7 7 3 3 3 3 1 5 4 3 2 2 2 3 2 2 3 4 4 5 3 10 7 5 5 2 2 3 9 6 6 5 7 5 5 6 8 9 10 6 6 11 10 11 12 13 14 15 15 14 14 13 14 14
21 20 20 19 19 19 17 15 14 13 11 6 6 6 4 1 3 2 4 5 5 1 0 2 2 8 8 11 10 9 7 6 6 6 6 7 1 1 4 3 3 4 2 4 4 5 2 4 3 2 4 4 3 5 7 4 5 7 3 8 7 5 6 8 10 10 14 13 11 9 10 9 9 8 9 12 12 13 13 15 14 14 15 13 13 16 17
21 21 21 19 19 18 17 16 15 11 9 6 5 6 4 3 1 3 5 6 3 4 6 8 5 6 10 11 11 8 8 8 8 4 2 3 4 0 5 4 4 3 2 5 4 5 4 3 3 0 3 3 1 5 5 4 3 7 6 4 3 4 2 1 6 13 5 5 5 10 12 11 11 11 11 10 11 12 12 13 14 15 14 15 15 16 17
22 22 22 21 20 19 17 17 16 16 13 12 8 8 7 4 2 3 5 3 2 0 3 4 7 8 8 7 7 9 10 7 6 7 3 1 3 5 4 4 5 6 6 4 0 2 0 1 3 2 3 3 5 2 4 4 5 5 4 5 5 6 1 8 9 6 2 10 10 10 11 10 11 10 10 11 12 13 13 13 14 15 15 16 17 17 17
22 22 22 22 21 21 20 19 17 16 16 16 10 6 5 5 3 2 5 5 6 1 3 4 7 7 7 8 11 10 10 9 9 8 8 8 8 6 4 2 3 3 2 1 1 1 1 1 0 1 4 2 4 1 3 5 6 3 3 7 6 6 6 3 6 9 12 13 11 11 13 11 9 9 10 11 11 13 15 15 16 16 17 18 17 16 16
22 22 21 21 21 21 20 19 17 16 15 14 8 6 4 2 2 4 5 5 6 3 1 3 4 7 9 12 10 9 11 9 8 8 8 9 7 5 4 4 3 2 2 3 3 2 2 3 2 4 3 5 3 5 4 6 5 4 5 4 1 4 5 10 8 9 8 10 13 17 11 9 10 10 10 12 13 15 16 16 17 17 18 18 18 16 16
21 21 21 20 20 20 20 19 18 18 15 13 8 6 4 3 2 3 4 6 4 3 2 3 3 4 2 11 10 10 11 10 9 8 8 9 9 8 5 5 2 3 2 2 3 2 2 2 5 3 3 5 3 4 5 6 6 6 6 6 4 2 8 6 4 4 5 11 18 13 7 13 11 12 11 13 13 15 17 17 18 18 17 17 18 19 18
21 21 21 21 20 20 20 19 19 19 16 13 5 5 4 2 1 4 6 5 4 6 4 3 4 2 3 6 7 9 10 10 10 9 9 9 9 8 8 8 6 5 5 5 4 4 5 5 2 2 3 3 2 5 4 4 4 5 7 7 6 11 8 7 6 8 12 16 15 9 12 13 14 14 13 14 14 15 17 17 17 17 18 18 18 18 18
22 22 21 21 21 20 20 20 20 20 19 7 5 5 3 5 3 6 8 7 6 6 1 2 3 2 1 4 7 7 8 9 9 10 11 9 9 8 8 7 7 7 6 4 3 4 4 3 3 5 4 4 1 4 3 5 7 5 4 1 2 4 6 6 3 8 12 11 11 12 15 16 14 15 14 14 14 16 16 17 17 17 18 19 19 17 16
22 22 22 21 20 19 19 18 18 20 19 7 6 4 2 2 5 7 12 9 6 6 1 2 3 3 3 2 4 5 7 7 7 8 9 8 8 7 7 6 7 5 4 4 4 4 2 3 2 3 2 5 4 3 4 6 5 5 6 4 4 4 5 5 10 14 13 13 15 15 16 15 14 14 14 14 15 15 15 15 17 17 18 17 16 16 15
23 22 21 21 20 19 18 17 17 17 8 7 6 5 4 4 6 10 11 9 8 5 2 3 2 2 2 1 3 3 4 3 4 5 6 4 7 6 8 7 6 8 6 5 4 4 5 3 3 4 3 3 4 1 5 5 6 6 7 7 7 7 8 11 13 12 12 13 16 17 16 15 15 15 14 15 15 16 17 18 18 18 16 17 16 16 16
23 22 22 20 19 18 17 17 16 9 5 5 5 4 4 2 7 8 8 8 5 3 4 1 2 1 1 5 3 2 4 6 3 1 5 5 4 2 5 4 5 5 3 2 3 3 4 3 3 4 5 5 1 2 5 5 8 9 9 9 8 10 11 11 12 12 13 14 14 14 16 16 16 17 17 17 17 18 19 19 19 17 16 16 16 16 15
24 22 22 20 18 17 16 15 18 12 8 5 3 3 3 6 9 9 8 5 3 0 3 1 2 2 2 2 4 5 6 5 4 2 3 2 3 0 3 3 4 3 4 4 3 3 3 3 4 4 4 7 7 7 7 7 10 11 10 10 11 11 12 13 12 14 14 12 12 13 15 16 17 17 17 17 18 18 18 18 19 19 18 17 16 15 14
23 23 20 19 18 14 16 13 7 5 4 3 1 4 7 13 10 10 6 4 4 2 0 1 2 2 2 2 1 4 4 6 3 3 2 2 5 3 2 1 1 1 1 3 3 3 2 3 3 4 5 6 4 4 4 9 10 10 10 12 13 13 14 14 13 13 13 13 15 16 17 19 20 19 18 18 17 18 19 18 17 17 16 14 14 14 13
23 21 19 17 17 12 7 7 5 5 5 2 3 8 15 15 11 6 3 4 4 4 1 1 3 3 3 3 2 2 4 3 2 3 4 1 4 3 3 3 4 4 2 1 4 4 4 2 3 5 2 3 3 6 8 11 12 12 13 13 13 13 13 14 15 15 16 16 18 18 19 18 19 19 18 18 18 18 18 18 18 17 17 16 15 13 12
22 19 17 15 8 5 6 3 2 1 4 5 10 15 18 10 5 4 4 4 4 2 5 1 5 2 2 5 2 3 4 2 3 1 2 1 2 1 1 2 4 2 3 3 3 3 2 3 3 5 4 6 6 9 11 11 12 13 13 13 12 12 13 14 15 17 18 19 20 18 18 19 18 17 18 18 17 18 18 17 17 16 16 16 14 13 12
22 18 7 5 5 3 2 2 1 3 6 9 8 5 4 5 3 3 2 3 2 2 2 5 3 4 2 3 3 4 4 2 4 2 2 0 2 2 1 1 2 1 3 3 3 2 3 3 4 6 6 7 9 11 11 10 11 11 12 12 13 13 13 15 16 17 18 20 19 19 19 19 18 17 17 18 18 17 15 15 14 14 13 13 12 11 12
15 5 6 4 5 3 0 3 3 2 5 4 3 3 2 1 2 2 2 1 1 4 1 5 1 2 4 2 5 3 4 0 2 2 2 2 1 3 2 2 1 1 4 3 3 6 2 4 4 5 6 7 8 9 11 11 11 10 11 11 12 13 14 14 15 16 16 15 16 17 17 17 19 18 16 16 16 15 15 14 13 13 13 12 10 10 11
2 4 2 4 1 4 4 3 3 4 4 3 3 3 1 2 3 2 1 2 3 1 1 3 2 1 4 1 5 4 2 4 2 2 2 3 2 1 1 1 2 1 2 1 4 4 1 4 3 4 6 7 8 7 8 11 11 11 11 12 13 14 15 15 16 14 13 13 15 15 14 15 16 15 15 15 15 15 14 13 13 12 12 11 10 10 10
7 5 3 2 6 5 5 8 5 4 3 3 2 1 1 2 2 1 1 3 3 2 2 2 4 4 3 3 2 3 4 2 2 4 2 3 1 3 1 2 0 0 2 2 2 1 1 3 3 3 5 8 10 10 10 9 9 11 12 13 13 14 16 16 14 14 15 15 14 14 14 15 15 15 14 15 14 13 13 13 12 11 12 12 10 11 10
7 6 6 8 9 7 6 3 3 3 1 2 1 3 2 1 1 3 3 3 3 2 6 5 4 6 7 4 2 4 4 2 2 1 1 3 0 1 2 1 1 1 1 2 1 1 1 2 2 5 6 11 11 10 11 11 11 12 13 13 13 14 15 15 14 13 14 14 13 14 14 15 15 14 14 14 13 13 12 13 13 13 13 12 9 9 10
16 10 5 5 3 2 2 3 2 1 2 2 1 2 2 2 3 4 4 2 2 2 4 2 3 5 6 1 3 4 3 0 2 2 1 2 1 1 1 1 1 1 2 2 2 2 2 2 2 6 9 12 12 12 11 12 12 12 13 14 13 14 15 14 14 14 15 14 14 14 14 15 14 13 13 13 12 13 12 12 11 10 9 10 9 8 8
3 2 3 2 2 1 1 3 1 1 2 2 3 4 4 4 3 3 2 3 5 5 5 7 6 7 4 2 1 3 2 3 2 0 2 1 1 2 0 2 1 3 1 2 2 3 2 2 2 9 11 12 11 12 12 13 13 13 14 14 14 15 15 14 14 15 15 13 14 14 14 14 14 13 12 12 13 13 11 11 11 11 10 11 11 9 8
3 2 2 2 1 1 1 1 2 2 3 4 3 5 4 6 4 4 6 4 4 5 7 6 6 7 4 5 1 3 2 2 1 2 1 2 1 0 1 2 2 2 2 2 2 2 2 2 6 11 13 13 13 14 13 13 13 14 15 15 15 15 15 15 15 15 14 14 15 15 14 14 13 13 12 12 12 12 12 11 11 10 10 9 8 8 8
3 3 3 2 1 2 2 2 2 3 3 3 5 8 7 7 5 8 4 3 5 5 7 6 7 6 4 5 3 2 3 2 3 1 2 1 2 1 2 1 1 2 2 2 3 3 4 5 8 10 13 14 15 14 14 14 14 14 15 16 16 16 16 16 16 15 14 14 15 14 14 13 13 13 13 13 12 12 11 10 11 10 9 10 9 8 8
3 2 2 1 3 3 2 4 4 4 4 6 6 6 7 6 3 3 4 3 4 5 5 6 7 6 5 5 2 1 2 1 2 2 2 1 1 2 0 1 2 2 3 3 3 3 2 6 8 11 13 14 15 15 15 15 15 15 15 15 16 16 16 17 17 16 15 15 15 14 13 13 14 14 13 12 11 11 11 11 11 10 10 10 8 8 8
3 2 3 3 3 3 7 5 6 5 3 4 3 5 4 1 4 4 5 2 3 2 6 6 5 4 5 4 4 3 3 2 3 2 1 1 1 1 1 1 2 2 2 3 4 4 3 6 9 12 13 14 15 16 15 15 16 17 17 16 18 18 18 17 17 16 16 17 16 14 14 14 14 12 11 13 12 10 10 10 11 11 10 10 9 8 8
2 2 2 3 3 2 4 7 7 7 6 6 4 4 5 7 7 6 4 4 4 6 5 6 3 3 3 3 4 2 3 3 3 3 2 2 2 3 2 3 3 4 3 4 2 3 4 6 9 13 14 15 15 14 15 15 16 17 17 17 17 18 18 17 16 16 16 14 14 13 13 12 12 13 13 12 12 11 11 10 10 10 10 9 8 10 10
3 3 2 3 3 4 4 2 4 5 5 4 4 6 6 6 8 6 4 5 5 5 5 4 2 4 3 3 3 3 3 3 2 3 3 4 3 3 3 3 3 3 3 5 2 3 4 7 9 12 14 14 15 15 16 15 16 16 15 16 15 16 16 17 17 16 16 14 14 14 14 12 12 12 12 13 11 10 10 11 11 11 10 9 10 9 8
2 3 4 6 6 4 5 5 5 5 4 5 6 6 6 6 7 5 5 4 5 5 4 5 4 3 3 3 3 3 3 3 3 4 4 4 3 4 4 4 3 4 0 5 3 3 5 6 8 10 13 14 15 15 15 16 17 16 16 16 16 15 15 16 17 16 16 15 14 14 14 13 12 12 12 11 11 12 12 11 11 11 10 10 10 9 9
3 5 5 6 8 9 6 6 5 5 6 6 8 6 4 6 7 3 2 5 5 6 7 5 4 3 3 5 3 2 1 1 3 3 5 4 3 4 4 4 4 5 4 5 5 4 4 5 7 10 12 13 15 15 15 16 16 16 17 17 16 16 16 15 15 15 14 14 14 14 13 13 12 12 11 11 11 11 11 11 11 11 11 10 9 9 9
Wind_Direction
3 5 5 6 358 346 327 328 312 301 309 270 178 208 234 244 15 99 166 174 188 200 211 202 208 229 239 252 248 253 256 264 274 294 278 282 240 247 236 227 216 246 243 194 187 191 186 186 201 183 182 168 197 187 182 181 185 196 189 199 169 55 231 180 215 198 195 204 191 186 219 243 208 203 219 215 211 209 230 226 220 226 223 231 170 113 122
3 359 3 7 6 359 352 341 341 327 301 295 303 222 242 182 148 140 163 189 199 220 209 198 205 223 231 250 268 276 260 264 252 238 306 258 241 243 224 215 256 251 229 240 196 184 183 186 200 187 174 178 192 186 195 177 191 193 171 207 147 195 208 213 172 206 192 183 209 204 205 221 226 212 203 218 217 210 219 238 206 231 226 230 194 145 163
358 359 0 358 357 348 349 351 5 336 299 286 297 267 77 239 131 116 144 169 207 220 222 283 229 212 219 226 247 255 235 232 261 301 254 256 250 256 250 253 252 247 224 227 194 182 199 170 196 198 174 142 183 176 190 183 195 194 175 210 149 219 190 211 199 198 186 193 193 197 195 203 211 223 212 224 231 209 205 219 177 214 228 225 209 92 114
357 357 355 352 349 347 345 344 330 313 312 267 251 270 231 204 131 147 150 192 213 242 263 265 268 215 202 224 234 237 240 192 200 204 248 257 270 268 273 247 267 269 215 213 193 185 179 194 179 193 156 142 191 177 188 188 194 180 160 185 165 209 197 214 247 234 209 203 198 195 197 196 208 215 216 203 231 245 224 214 208 212 205 222 114 141 136
352 353 353 350 351 356 356 338 316 296 308 250 246 235 248 304 165 159 170 182 216 237 220 222 231 219 207 241 216 230 231 244 232 193 263 242 245 257 251 240 239 226 227 222 209 185 167 176 173 187 165 178 174 182 188 195 165 110 149 183 184 199 199 185 148 358 336 6 245 189 196 199 208 207 203 214 211 235 242 219 217 218 237 110 115 138 140
348 349 352 353 353 358 355 349 331 338 322 224 234 262 223 209 132 186 150 207 190 207 236 240 220 1 253 238 356 257 250 217 240 223 240 266 253 264 229 239 239 228 214 193 201 184 179 170 185 176 169 164 161 181 190 186 126 196 171 187 200 188 192 168 160 190 147 340 287 200 203 215 209 203 201 206 209 205 213 227 243 12 288 143 144 144 133
351 350 353 353 352 354 357 355 352 326 329 233 250 281 337 257 197 135 111 265 114 198 36 87 4 253 260 284 280 281 262 258 255 276 273 245 238 218 256 251 217 218 207 195 204 182 180 181 161 181 189 180 163 172 180 180 162 194 182 182 189 199 197 162 184 164 160 177 152 174 155 120 117 159 181 217 213 212 205 191 178 130 114 131 139 129 130
355 355 355 357 354 352 351 354 348 336 320 259 251 247 305 0 329 88 47 297 57 93 69 17 254 220 59 254 260 289 282 271 281 263 243 237 249 223 237 243 224 205 214 177 190 242 232 164 176 163 162 161 186 168 181 162 182 192 187 186 148 231 132 178 176 167 148 146 151 168 137 123 101 94 107 114 112 109 100 89 104 111 115 123 127 123 118
357 358 357 354 354 350 347 349 345 329 340 258 224 15 14 308 163 212 281 218 84 105 38 12 347 291 200 268 309 289 287 278 288 273 284 264 231 217 218 232 258 218 194 140 145 244 178 171 102 150 182 172 175 184 169 173 176 186 178 161 185 178 176 193 169 157 151 151 149 133 110 97 86 66 64 75 98 100 93 103 108 122 126 124 122 119 128
354 356 353 352 349 346 344 344 343 332 319 276 317 18 33 258 215 204 247 183 40 29 49 79 70 260 240 242 273 277 279 286 279 276 253 245 259 288 297 304 315 234 105 123 112 351 132 179 146 176 164 145 126 179 183 185 180 173 176 152 160 191 169 195 160 160 145 139 148 136 140 125 105 48 24 29 77 86 93 84 90 112 129 137 156 148 143
351 351 350 347 344 341 340 340 340 339 325 3 333 346 356 3 316 286 333 51 45 133 165 202 224 264 288 221 255 261 263 258 246 239 183 210 233 252 260 275 264 117 74 94 75 55 61 108 133 106 83 127 101 52 168 181 176 176 181 168 188 179 180 194 174 165 144 156 171 166 183 191 125 46 18 331 95 108 94 88 80 79 83 56 94 126 137
348 346 342 342 341 339 337 335 334 335 323 311 314 293 308 311 269 259 260 96 142 192 212 235 237 253 262 283 279 281 304 220 207 215 274 220 271 309 274 23 147 84 68 29 95 62 22 68 90 111 97 77 102 117 50 91 101 164 164 181 195 190 181 170 201 175 164 163 181 171 189 118 73 197 40 62 71 92 93 89 92 98 101 102 108 125 133
346 343 340 339 338 336 336 331 326 322 315 298 280 275 311 325 299 299 284 286 181 205 222 260 251 261 263 265 258 156 109 109 114 138 214 214 93 63 72 167 149 108 77 94 117 150 150 155 110 112 106 87 77 80 102 105 105 161 193 180 195 183 182 179 179 177 145 164 179 186 134 94 140 125 115 108 115 114 94 72 62 78 101 114 121 128 128
343 340 335 337 338 335 333 331 324 318 303 290 272 266 277 263 270 269 255 276 117 219 278 295 269 279 310 1 202 128 116 126 156 174 163 135 74 73 94 108 102 123 320 167 142 147 110 113 118 127 110 104 71 35 6 66 46 114 133 116 222 190 160 175 143 163 175 169 151 68 131 141 144 158 148 154 148 187 169 110 71 91 114 124 125 126 127
342 338 336 334 336 333 330 329 326 317 303 271 266 270 253 230 244 280 322 277 339 169 267 11 340 317 333 54 99 94 96 114 115 112 122 109 77 84 93 107 116 127 16 204 140 158 106 111 120 115 109 147 151 191 263 90 85 38 38 143 175 291 178 205 160 184 166 141 127 147 176 201 181 186 156 15 40 54 90 104 105 109 123 132 132 132 133
343 339 336 333 332 331 329 331 328 323 303 266 252 257 268 263 250 251 265 276 305 113 67 274 282 292 300 46 49 72 110 102 101 119 120 117 119 116 109 101 117 260 26 58 68 84 102 97 108 133 143 128 125 132 192 126 152 115 124 63 89 205 148 256 195 192 172 181 176 168 181 65 120 155 170 175 183 160 151 135 119 150 143 144 141 136 139
341 340 336 334 332 334 333 330 328 316 308 262 249 232 246 205 212 231 258 258 262 53 33 37 281 253 277 301 70 47 13 75 114 117 119 120 123 123 127 122 103 227 87 81 76 96 113 94 80 53 106 138 174 157 158 157 160 150 126 146 349 116 102 253 231 190 186 154 195 160 38 103 142 136 154 166 160 181 201 230 179 164 158 150 146 143 144
341 339 337 334 334 334 334 335 332 320 284 211 227 221 232 184 223 257 259 266 301 77 33 23 7 35 35 359 9 30 306 141 109 90 118 124 130 139 131 160 168 204 237 158 169 165 137 154 182 180 160 169 147 161 156 157 144 162 155 168 169 205 177 195 185 189 167 188 146 93 108 74 117 136 150 123 158 191 204 238 122 154 151 152 148 146 146
341 338 337 335 335 334 336 341 341 335 283 197 210 221 186 188 206 253 278 284 257 61 42 27 28 42 19 333 25 18 49 359 339 143 114 141 68 56 3 57 323 164 217 147 183 181 176 172 202 173 151 159 181 151 130 139 134 115 132 138 142 155 195 178 178 197 173 194 160 82 90 122 135 150 151 139 176 206 186 84 127 140 143 147 148 145 144
339 335 335 335 334 335 338 348 355 357 303 235 233 302 47 185 192 239 283 310 324 69 35 36 20 40 33 28 21 15 356 12 360 343 110 104 132 201 160 153 195 173 128 171 173 220 190 180 155 152 162 149 122 119 106 83 22 83 167 32 258 71 229 200 190 151 189 217 135 157 189 162 193 149 134 38 272 82 105 121 125 137 138 142 143 143 141
336 333 334 334 336 337 340 351 5 11 328 260 252 268 193 150 208 227 240 285 305 352 63 26 33 41 30 34 28 9 8 12 3 359 360 60 30 283 195 150 180 193 161 194 185 181 208 166 189 188 54 183 142 208 160 136 128 66 352 84 64 12 258 151 73 1 253 201 156 72 45 135 162 181 137 87 89 125 125 129 131 134 139 139 140 140 143
334 333 332 334 336 337 340 346 358 10 358 302 291 271 278 118 196 236 251 255 286 40 53 31 4 41 40 39 31 19 12 2 359 343 332 355 116 358 34 37 38 16 30 311 125 106 216 156 99 161 183 120 172 188 147 164 162 122 107 278 168 18 38 13 74 31 23 48 101 104 98 105 101 101 110 112 114 123 132 127 133 137 137 138 135 137 134
335 334 334 335 337 338 339 343 349 357 0 343 285 274 355 133 168 191 242 263 221 225 124 105 66 50 44 43 36 23 29 20 0 351 347 335 305 139 4 360 71 2 22 10 350 320 147 174 207 171 154 174 167 141 181 222 131 151 108 38 71 61 54 100 88 83 91 71 75 93 104 113 112 99 108 112 116 117 130 133 135 137 136 138 133 136 133
337 336 335 336 337 337 338 339 344 349 352 350 276 302 344 8 20 229 246 250 286 113 73 36 41 37 17 21 19 28 20 35 26 35 33 329 334 18 132 56 2 196 79 22 325 344 28 352 57 318 137 56 178 166 164 152 149 132 120 123 76 72 338 123 101 156 164 82 128 111 114 118 111 106 103 113 118 124 128 130 131 133 133 132 135 133 136
337 337 335 335 336 336 337 340 343 346 345 345 314 249 250 266 162 285 311 317 286 353 68 69 45 21 36 20 27 28 23 19 32 35 73 312 319 343 34 21 4 9 51 22 307 256 191 216 178 180 123 75 308 153 68 138 121 155 133 103 145 120 32 94 112 115 76 126 138 134 123 117 124 124 123 117 120 126 124 123 127 128 133 134 130 134 135
338 336 336 334 335 336 338 339 341 341 340 335 318 304 348 4 348 279 275 264 288 12 104 73 74 48 29 36 32 24 12 17 20 42 43 55 49 47 88 130 93 28 41 20 289 277 171 200 134 99 131 114 294 111 83 22 121 121 104 94 23 100 195 122 92 98 98 111 128 133 125 119 122 121 117 124 125 127 122 123 128 134 134 131 133 137 138
336 335 335 335 334 334 334 333 333 335 332 328 314 287 315 353 353 330 338 342 310 137 106 96 87 68 48 42 29 22 21 18 26 31 41 40 60 75 70 77 87 106 94 92 35 38 45 46 53 78 80 87 54 73 124 124 118 129 126 75 272 163 143 109 113 123 153 160 161 152 140 149 143 140 132 127 131 132 132 131 136 138 136 135 136 135 135
335 334 333 333 332 332 330 327 328 331 328 318 285 268 283 310 8 340 346 328 338 318 105 135 116 93 22 40 18 32 22 27 26 34 45 53 48 41 45 51 29 84 110 172 159 158 116 123 85 77 93 112 140 113 104 101 116 104 119 94 355 195 130 175 172 182 161 155 158 179 134 131 135 140 137 133 137 136 138 139 140 139 136 138 138 139 140
334 333 331 332 331 330 328 325 326 325 325 317 267 267 245 270 225 47 14 330 293 296 78 63 80 37 31 31 6 34 36 35 39 39 46 47 54 60 56 45 52 68 65 55 60 64 70 65 50 80 82 10 320 126 148 143 122 110 74 39 57 57 52 50 33 90 105 138 168 164 129 139 137 139 137 135 139 141 139 140 139 137 138 139 138 139 141
332 331 330 330 329 328 326 323 326 322 322 304 264 254 230 131 49 27 6 339 323 317 205 131 102 84 113 16 27 31 45 41 43 45 46 48 48 45 50 58 62 49 58 63 78 84 75 83 75 85 91 303 261 163 176 136 120 96 75 27 60 98 67 28 18 121 121 115 96 111 126 129 134 135 136 137 141 140 141 142 141 140 140 141 140 141 142
330 328 327 326 326 323 321 319 320 323 318 306 271 269 265 129 62 20 349 336 329 308 1 87 88 117 90 34 5 22 50 51 47 39 48 49 47 49 52 58 52 54 81 66 65 69 114 103 106 86 113 27 344 225 157 137 126 135 154 150 143 142 156 115 94 97 96 102 110 119 128 129 130 133 134 139 138 140 138 138 137 139 138 140 141 143 143
328 325 324 323 321 319 314 313 316 321 309 2 7 20 17 358 341 321 321 314 315 271 148 129 156 162 79 72 66 320 21 5 70 66 46 19 61 48 69 53 61 40 42 75 85 82 57 60 82 110 123 56 309 173 136 130 134 130 142 141 126 120 108 111 115 113 116 127 131 130 130 133 139 139 138 139 139 139 139 138 140 140 151 145 143 139 138
325 323 320 319 316 312 308 306 306 313 316 342 332 309 74 360 294 292 323 319 269 269 307 255 91 118 201 95 163 99 332 250 124 6 67 349 71 80 69 75 76 71 25 73 53 78 96 94 92 85 37 315 248 121 115 109 116 137 141 128 127 119 114 122 123 127 131 139 144 139 139 138 137 133 135 138 139 140 140 141 143 147 143 142 140 141 143
321 319 317 313 309 307 302 300 295 284 267 250 218 143 111 25 350 343 327 282 291 22 261 97 177 211 101 142 224 97 307 333 56 333 96 33 331 296 87 90 44 69 6 60 115 116 108 101 87 81 82 50 49 65 91 111 129 137 134 131 126 126 127 131 134 137 140 140 134 128 128 129 131 133 136 140 141 142 142 141 146 146 146 146 147 142 141
317 313 311 306 302 301 300 290 293 259 281 258 77 72 355 341 335 303 292 303 260 182 84 256 271 153 188 210 176 93 306 287 96 25 70 66 314 53 69 63 83 99 68 284 85 75 89 70 195 150 86 101 88 98 128 139 132 129 129 130 135 136 136 135 139 139 136 131 129 129 132 136 137 139 141 140 144 145 144 147 148 146 144 141 141 145 149
312 306 302 304 299 286 278 234 231 263 221 263 26 354 336 320 316 296 278 275 288 315 211 174 239 188 212 180 150 107 251 96 108 100 69 139 100 350 107 117 101 50 6 35 92 109 101 165 256 107 153 115 97 129 136 139 136 136 135 136 141 143 139 137 137 135 131 130 131 133 136 139 139 139 142 143 145 149 150 149 151 151 150 149 148 148 154
303 303 298 285 271 219 236 230 165 324 354 334 299 304 293 290 250 247 232 229 200 248 299 141 237 176 334 60 77 114 242 158 232 115 71 88 70 353 104 123 89 136 122 89 84 88 90 306 58 85 92 99 100 115 129 137 138 138 139 140 141 136 136 137 135 131 132 133 137 139 141 141 142 145 147 149 152 154 156 153 148 148 149 150 152 158 152
305 299 282 219 207 230 238 210 100 9 334 291 281 277 199 205 225 187 193 220 80 320 232 271 274 93 219 233 124 119 264 99 273 126 112 73 178 94 359 66 80 256 99 84 84 356 67 60 76 84 83 89 110 126 131 136 134 136 139 140 136 137 139 140 140 139 141 142 145 147 146 147 147 150 152 150 152 149 145 149 154 154 154 150 160 151 149
289 262 231 235 214 205 18 45 24 313 269 270 234 255 196 228 254 188 201 218 150 224 159 256 172 151 200 128 101 135 324 285 167 207 148 100 301 113 261 134 154 234 117 146 119 252 104 98 110 112 108 130 137 127 132 132 137 141 144 141 142 140 144 147 148 148 150 151 151 152 153 153 152 152 153 150 149 153 154 156 154 155 153 156 153 152 152
302 247 228 207 218 27 343 102 120 294 241 219 195 260 225 202 245 212 188 228 215 214 158 227 80 213 345 139 155 143 161 296 289 132 110 119 312 6 112 78 100 248 139 117 98 275 175 132 127 130 135 155 136 151 139 147 147 146 144 147 143 145 149 151 153 158 150 145 145 148 148 146 148 148 150 152 155 152 157 157 154 155 155 156 154 159 161
5 329 302 345 8 332 334 316 296 238 223 227 177 236 302 219 228 3 210 225 228 163 246 312 155 195 175 276 211 152 123 256 299 25 55 77 50 282 136 97 299 289 120 103 128 246 124 130 173 157 142 147 149 153 147 149 143 146 150 152 151 149 152 149 152 147 147 148 147 148 147 150 152 154 155 154 153 155 157 152 154 153 160 153 165 178 156
340 314 317 305 290 288 283 253 228 193 230 280 210 210 216 249 159 223 235 242 193 170 184 204 189 193 174 231 67 105 130 330 324 246 179 134 221 305 103 143 215 234 111 69 137 226 161 155 157 118 132 142 148 154 155 151 151 151 151 149 149 150 152 152 154 147 151 151 150 150 153 155 154 154 156 157 156 155 155 159 164 165 170 145 176 190 167
280 253 260 283 255 229 240 221 180 238 184 195 235 212 190 222 219 221 199 223 19 257 130 236 26 42 72 107 102 8 56 166 256 227 204 103 150 262 159 133 216 146 97 148 227 164 182 176 164 135 144 147 156 159 159 154 155 156 153 155 157 158 157 156 154 153 155 155 153 152 153 155 155 154 154 154 152 158 165 157 158 162 173 152 180 193 187
258 265 245 220 237 221 214 236 176 195 258 210 182 203 196 222 207 206 243 192 163 224 158 195 179 210 162 215 230 136 155 168 250 33 81 125 216 115 220 179 80 74 149 206 214 183 177 157 170 140 146 148 158 160 157 158 159 156 156 159 160 160 159 157 156 156 157 155 155 155 157 156 156 153 158 154 159 161 161 166 165 177 180 167 184 185 179
266 232 238 213 191 194 121 326 182 198 212 209 218 220 194 210 216 201 222 118 194 195 158 204 170 203 165 150 225 142 245 148 145 237 143 203 166 163 202 108 120 180 201 188 206 181 122 176 124 136 149 158 162 161 158 163 162 162 160 162 164 164 163 163 162 162 159 159 159 160 160 158 158 158 160 160 164 167 171 170 167 186 174 178 168 179 173
236 240 197 173 354 276 209 214 177 216 225 215 206 227 226 218 208 224 145 124 225 149 183 179 185 191 150 165 242 158 184 175 169 112 146 195 154 139 47 62 222 214 226 220 202 213 206 189 158 158 160 162 162 161 161 164 163 163 165 168 169 168 169 166 165 165 162 161 160 165 162 164 159 167 167 173 169 171 172 172 170 186 171 183 171 176 163
260 262 264 251 239 202 211 230 204 217 221 213 225 221 238 240 220 35 78 199 209 190 168 177 201 182 164 168 184 147 210 186 139 127 238 193 129 91 288 226 211 206 192 225 215 211 214 145 155 152 159 161 163 161 164 164 168 168 170 168 170 170 169 168 167 168 165 164 164 166 164 166 167 174 165 170 172 177 176 175 174 188 180 194 174 185 168
260 247 241 217 219 198 208 222 243 234 231 268 219 229 238 266 280 217 172 222 270 181 174 179 187 158 172 159 249 204 180 155 133 167 221 98 126 175 160 217 234 217 219 209 209 221 206 142 151 151 159 163 164 164 166 167 169 171 170 169 170 170 170 170 170 169 168 168 168 168 167 173 171 178 178 173 178 183 183 188 176 183 185 192 185 188 176
298 296 235 221 242 223 222 219 218 238 219 205 228 241 228 226 230 242 159 176 200 217 187 188 177 180 191 153 216 167 180 145 168 163 167 200 174 179 194 211 209 222 212 236 230 169 148 136 142 149 158 165 167 169 169 170 169 172 172 171 171 170 172 172 174 170 171 172 173 174 174 178 180 177 182 186 188 184 192 193 190 185 188 192 194 201 179
246 225 245 252 236 237 257 259 240 246 215 194 197 218 216 221 226 196 136 202 209 217 175 221 173 221 168 156 208 184 204 188 198 152 196 198 203 203 219 226 193 224 192 205 217 138 136 133 145 157 164 169 169 172 171 171 171 173 173 173 173 173 176 175 176 174 176 177 178 180 180 179 189 184 193 195 188 180 187 194 195 194 187 191 201 201 194
227 260 244 235 242 233 190 226 220 228 234 210 205 209 202 215 225 180 157 217 184 195 194 202 178 215 156 185 212 194 214 183 185 191 202 207 203 213 211 222 216 245 175 143 182 154 149 145 160 164 168 171 174 176 174 172 173 176 175 176 178 178 179 181 180 178 181 183 183 186 187 186 189 190 189 195 196 189 191 196 197 197 190 198 206 201 191
220 221 230 228 240 265 245 234 248 251 240 211 207 200 191 212 202 125 107 227 197 208 198 198 195 185 193 201 201 205 112 170 218 207 210 220 203 214 204 226 240 213 185 159 175 144 145 159 165 167 171 173 176 178 176 174 175 178 178 179 180 182 182 184 184 184 185 186 185 188 191 188 188 195 192 196 203 202 199 194 199 202 198 201 203 205 200